Starlink 32625

operational
NORAD ID: 62154 Int'l Des: 2024-224 Owner: SPXS Country: US Constellation: starlink
LEOCIRCULAR

关于 Starlink 32625

正在加载描述...

实时位置

正在加载3D地球...

即将过境

高度历史

Altitude vs Time

uPlot chart will show altitude changes over time

两行轨道根数

1 62154U 24224R 25258.50046139 .00023498 00000-0 85996-3 0 9998
2 62154 42.9962 67.7692 0000477 316.6160 43.4654 15.27608849 45577
Epoch: Sep 15, 2025 • Age: 13 hours

当前状态

高度 485.6 km
速度 7.63 km/s
星下点 39.98°N, 170.39°E
发射日期 Nov 30, 2024
运行时间 0.7 years
类型 internet

技术详情

分类 Payload
质量 730.00 kg
干质量 700.00 kg
总质量 730.00 kg
长度 0.30 m
直径 4.10 m
跨度 29.00 m
形状 Box + pan
制造商 SPXS
平台类型 Starlink V2M
阶段状态 In Orbit
所有者/国家 SPXS/US

大型星座

Loading constellations...